Standort:,iXtronics Beispiel 1,,,,,,,,,,,,,,
Datenstand:,2017-01-11 13:23:03,,,,,,,,,,,,,,
Datum, Uhrzeit, (delta) Taupunkt Kunstglas Innenraum, (delta) Taupunkt Kunstglas Luftspalt, (delta) Taupunkt Schutzglas Luftspalt, Temperatur Kunstglas Innenraum, Temperatur Kunstglas Luftspalt, Temperatur Schutzglas Luftspalt, Temperatur Innenraum, Luftfeuchtigkeit Innenraum, Taupunkt Innenraum, Temperatur Luftspalt, Luftfeuchtigkeit Luftspalt, Taupunkt Luftspalt, Akkuspannung, Standort
, , [K], [K], [K], [°C], [°C], [°C], [°C], [%], [°C], [°C], [%], [°C], [V],
2015-12-21,16:45,8.72,8.8,4.62,17.01,16.75,12.57,19.72,47.6,8.29,16.56,56.7,7.95,4.06,iXtronics Beispiel 1
2015-12-21,17:00,9.3,9.48,5.78,16.73,16.27,12.57,18.41,48.7,7.43,15,57.9,6.79,4.06,iXtronics Beispiel 1
2015-12-21,17:15,9,8.54,4.84,16.39,16.03,12.33,18.43,48.5,7.39,14.68,62,7.49,4.06,iXtronics Beispiel 1
2015-12-21,17:30,9.01,7.91,4.41,16.43,15.93,12.43,18.53,48.3,7.42,14.44,65.3,8.02,4.06,iXtronics Beispiel 1
2015-12-21,17:45,8.91,8.05,4.35,16.33,15.87,12.17,18.57,48.2,7.42,14.3,65,7.82,4.06,iXtronics Beispiel 1
2015-12-21,18:00,8.76,8.53,4.91,16.21,15.91,12.29,18.7,47.9,7.45,14.22,63.4,7.38,4.06,iXtronics Beispiel 1
2015-12-21,18:15,8.86,8.37,4.93,16.37,15.87,12.43,18.76,47.9,7.51,14.25,63.8,7.5,4.06,iXtronics Beispiel 1
2015-12-21,18:30,9.05,8.51,5.05,16.49,15.97,12.51,18.69,47.9,7.44,14.33,63.3,7.46,4.06,iXtronics Beispiel 1
2015-12-21,18:45,8.97,8.14,4.72,16.47,15.93,12.51,18.82,47.7,7.5,14.36,64.6,7.79,4.06,iXtronics Beispiel 1
2015-12-21,19:00,9,8.32,4.84,16.53,16.01,12.53,18.85,47.7,7.53,14.4,64,7.69,4.06,iXtronics Beispiel 1
2015-12-21,19:15,8.85,8.22,4.34,16.39,15.97,12.09,18.86,47.7,7.54,14.3,64.7,7.75,4.06,iXtronics Beispiel 1
2015-12-21,19:30,9.01,8.35,4.65,16.53,15.97,12.27,18.88,47.6,7.52,14.25,64.3,7.62,4.06,iXtronics Beispiel 1
2015-12-21,19:45,8.97,8.71,5.41,16.47,15.77,12.47,18.82,47.7,7.5,14.25,61.9,7.06,4.06,iXtronics Beispiel 1
2015-12-21,20:00,8.91,8.28,4.98,16.43,15.91,12.61,18.77,47.9,7.52,14.26,64.3,7.63,4.06,iXtronics Beispiel 1
2015-12-21,20:15,9.05,8.28,5.08,16.53,15.93,12.73,18.76,47.8,7.48,14.33,64.1,7.65,4.06,iXtronics Beispiel 1
2015-12-21,20:30,9.07,8.55,5.27,16.49,16.01,12.73,18.73,47.7,7.42,14.42,62.9,7.46,4.06,iXtronics Beispiel 1
2015-12-21,20:45,9.02,8.68,5.48,16.47,16.03,12.83,18.76,47.7,7.45,14.48,62.2,7.35,4.06,iXtronics Beispiel 1
2015-12-21,21:00,9.06,8.47,5.11,16.49,16.03,12.67,18.78,47.6,7.43,14.48,63.1,7.56,4.06,iXtronics Beispiel 1
2015-12-21,21:15,9.1,8.61,5.29,16.53,16.03,12.71,18.81,47.5,7.43,14.48,62.5,7.42,4.06,iXtronics Beispiel 1
2015-12-21,21:30,9.06,8.42,5.08,16.49,16.11,12.77,18.71,47.8,7.43,14.52,63.5,7.69,4.06,iXtronics Beispiel 1
2015-12-21,21:45,9.2,8.3,5.04,16.59,16.03,12.77,18.73,47.6,7.39,14.52,63.7,7.73,4.06,iXtronics Beispiel 1
2015-12-21,22:00,9.08,8.27,4.99,16.53,16.01,12.73,18.73,47.8,7.45,14.53,63.7,7.74,4.06,iXtronics Beispiel 1
2015-12-21,22:15,9.21,8.18,4.88,16.63,16.07,12.77,18.67,47.9,7.42,14.52,64.4,7.89,4.06,iXtronics Beispiel 1
2015-12-21,22:30,9.06,7.82,4.02,16.59,15.97,12.17,18.72,48.1,7.53,14.41,66,8.15,4.06,iXtronics Beispiel 1
2015-12-21,22:45,8.79,7.46,3.42,16.37,15.75,11.71,18.64,48.5,7.58,14.19,67.6,8.29,4.06,iXtronics Beispiel 1
2015-12-21,23:00,8.51,7.4,3.42,16.17,15.65,11.67,18.66,48.7,7.66,13.92,68.6,8.25,4.06,iXtronics Beispiel 1
2015-12-21,23:15,8.43,7.36,3.56,16.13,15.65,11.85,18.58,49.1,7.7,13.89,68.9,8.29,4.06,iXtronics Beispiel 1
2015-12-21,23:30,8.48,7.37,3.79,16.21,15.71,12.13,18.54,49.3,7.73,13.97,68.8,8.34,4.06,iXtronics Beispiel 1
2015-12-21,23:45,8.53,7.41,3.77,16.33,15.87,12.23,18.56,49.5,7.8,14.07,68.9,8.46,4.06,iXtronics Beispiel 1
2015-12-22,00:00,8.41,7.23,3.59,16.27,15.77,12.13,18.62,49.5,7.86,14.11,69.1,8.54,4.06,iXtronics Beispiel 1
2015-12-22,00:15,8.5,7.18,3.52,16.37,15.75,12.09,18.63,49.5,7.87,14.07,69.4,8.57,4.06,iXtronics Beispiel 1
2015-12-22,00:30,8.43,7.21,3.67,16.33,15.77,12.23,18.57,49.8,7.9,14.11,69.2,8.56,4.06,iXtronics Beispiel 1
2015-12-22,00:45,8.16,7.16,3.34,16.13,15.75,11.93,18.61,49.9,7.97,14.01,69.8,8.59,4.06,iXtronics Beispiel 1
2015-12-22,01:00,8.1,7.02,3.24,16.07,15.57,11.79,18.55,50.1,7.97,13.88,70.2,8.55,4.06,iXtronics Beispiel 1
2015-12-22,01:15,8.14,7.02,3.26,16.11,15.51,11.75,18.58,50,7.97,13.79,70.3,8.49,4.06,iXtronics Beispiel 1
2015-12-22,01:30,8.13,7.03,3.27,16.13,15.51,11.75,18.52,50.3,8,13.78,70.3,8.48,4.06,iXtronics Beispiel 1
2015-12-22,01:45,8.08,6.96,3.2,16.11,15.47,11.71,18.58,50.2,8.03,13.75,70.6,8.51,4.06,iXtronics Beispiel 1
2015-12-22,02:00,8.06,7.02,3.22,16.07,15.45,11.65,18.46,50.5,8.01,13.71,70.4,8.43,4.06,iXtronics Beispiel 1
2015-12-22,02:15,8.03,7,3.24,16.03,15.41,11.65,18.49,50.4,8,13.69,70.4,8.41,4.06,iXtronics Beispiel 1
2015-12-22,02:30,8.09,7,3.26,16.11,15.41,11.67,18.44,50.6,8.02,13.67,70.5,8.41,4.06,iXtronics Beispiel 1
2015-12-22,02:45,7.95,6.99,3.15,15.97,15.45,11.61,18.51,50.4,8.02,13.67,70.7,8.46,4.06,iXtronics Beispiel 1
2015-12-22,03:00,7.96,7.04,3.26,15.97,15.45,11.67,18.47,50.5,8.01,13.67,70.5,8.41,4.06,iXtronics Beispiel 1
2015-12-22,03:15,8,7.06,3.48,16.03,15.51,11.93,18.49,50.5,8.03,13.75,70.3,8.45,4.06,iXtronics Beispiel 1
2015-12-22,03:30,8.05,7.16,3.4,16.07,15.61,11.85,18.54,50.3,8.02,13.82,70,8.45,4.06,iXtronics Beispiel 1
2015-12-22,03:45,8.05,7.05,3.53,16.07,15.55,12.03,18.48,50.5,8.02,13.89,69.9,8.5,4.06,iXtronics Beispiel 1
2015-12-22,04:00,8.27,7.19,3.75,16.29,15.71,12.27,18.44,50.6,8.02,14,69.5,8.52,4.06,iXtronics Beispiel 1
2015-12-22,04:15,8.23,7.22,3.92,16.27,15.81,12.51,18.53,50.4,8.04,14.18,69,8.59,4.06,iXtronics Beispiel 1
2015-12-22,04:30,8.32,7.26,3.88,16.33,15.81,12.43,18.59,50.1,8.01,14.23,68.6,8.55,4.06,iXtronics Beispiel 1
2015-12-22,04:45,8.33,7.33,4.09,16.33,15.87,12.63,18.52,50.3,8,14.29,68.3,8.54,4.06,iXtronics Beispiel 1
2015-12-22,05:00,8.45,7.35,4.21,16.49,15.91,12.77,18.62,50.1,8.04,14.36,68.1,8.56,4.06,iXtronics Beispiel 1
2015-12-22,05:15,8.39,7.31,4.23,16.43,15.91,12.83,18.66,50,8.04,14.42,68,8.6,4.06,iXtronics Beispiel 1
2015-12-22,05:30,8.62,7.35,4.29,16.65,16.03,12.97,18.61,50.1,8.03,14.55,67.8,8.68,4.06,iXtronics Beispiel 1
2015-12-22,05:45,8.64,7.43,4.27,16.65,16.17,13.01,18.56,50.2,8.01,14.68,67.5,8.74,4.06,iXtronics Beispiel 1
2015-12-22,06:00,8.59,7.41,4.35,16.63,16.13,13.07,18.56,50.3,8.04,14.68,67.4,8.72,4.06,iXtronics Beispiel 1
2015-12-22,06:15,8.47,7.47,4.37,16.49,16.17,13.07,18.54,50.3,8.02,14.68,67.3,8.7,4.06,iXtronics Beispiel 1
2015-12-22,06:30,8.65,7.47,4.41,16.69,16.17,13.11,18.56,50.3,8.04,14.68,67.3,8.7,4.06,iXtronics Beispiel 1
2015-12-22,06:45,8.6,7.43,4.47,16.65,16.13,13.17,18.54,50.4,8.05,14.68,67.3,8.7,4.06,iXtronics Beispiel 1
2015-12-22,07:00,8.54,7.41,4.37,16.69,16.21,13.17,18.52,50.8,8.15,14.68,67.8,8.8,4.06,iXtronics Beispiel 1
2015-12-22,07:15,8.29,7.32,4.06,16.57,16.21,12.95,18.2,52.3,8.28,14.68,68.2,8.89,4.06,iXtronics Beispiel 1
2015-12-22,07:30,8.24,6.83,3.09,16.53,16.03,12.29,18.74,50.6,8.29,14.6,70,9.2,4.06,iXtronics Beispiel 1
2015-12-22,07:45,8.08,6.78,2.96,16.39,15.87,12.05,18.73,50.7,8.31,14.27,71,9.09,4.06,iXtronics Beispiel 1
2015-12-22,08:00,7.98,6.8,3.04,16.33,15.85,12.09,18.65,51.1,8.35,14.18,71.2,9.05,4.06,iXtronics Beispiel 1
2015-12-22,08:15,8,6.88,3.26,16.39,15.91,12.29,18.59,51.4,8.39,14.22,70.9,9.03,4.06,iXtronics Beispiel 1
2015-12-22,08:30,8.16,6.88,3.34,16.57,15.97,12.43,18.71,51.1,8.41,14.35,70.6,9.09,4.06,iXtronics Beispiel 1
2015-12-22,08:45,8.23,7.05,3.51,16.65,16.11,12.57,18.82,50.8,8.42,14.39,70.3,9.06,4.06,iXtronics Beispiel 1
2015-12-22,09:00,8.3,7,3.66,16.69,16.17,12.83,18.69,51.1,8.39,14.63,69.7,9.17,4.06,iXtronics Beispiel 1
2015-12-22,09:15,8.41,7.16,3.88,16.89,16.33,13.05,18.82,51,8.48,14.68,69.5,9.17,4.06,iXtronics Beispiel 1
2015-12-22,09:30,8.31,7.32,3.76,16.79,16.47,12.91,18.88,50.8,8.48,14.7,69.3,9.15,4.06,iXtronics Beispiel 1
2015-12-22,09:45,8.41,7.44,3.84,16.95,16.57,12.97,18.95,50.8,8.54,14.7,69.2,9.13,4.06,iXtronics Beispiel 1
2015-12-22,10:00,8.47,7.38,4.08,17.01,16.57,13.27,18.91,50.9,8.54,14.88,68.7,9.19,4.06,iXtronics Beispiel 1
2015-12-22,10:15,8.61,7.42,4.26,17.17,16.65,13.49,19.03,50.6,8.56,15.1,67.9,9.23,4.06,iXtronics Beispiel 1
2015-12-22,10:30,8.74,7.56,4.34,17.33,16.91,13.69,19.06,50.6,8.59,15.28,67.7,9.35,4.06,iXtronics Beispiel 1
2015-12-22,10:45,8.8,7.68,4.4,17.41,16.99,13.71,19.05,50.7,8.61,15.33,67.3,9.31,4.06,iXtronics Beispiel 1
2015-12-22,11:00,8.71,7.56,4.56,17.33,16.91,13.91,18.97,51,8.62,15.39,67.2,9.35,4.06,iXtronics Beispiel 1
2015-12-22,11:15,8.88,7.72,4.76,17.53,17.11,14.15,19,51,8.65,15.53,66.8,9.39,4.06,iXtronics Beispiel 1
2015-12-22,11:30,8.79,7.73,4.63,17.57,17.31,14.21,19.27,50.6,8.78,15.73,66.8,9.58,4.06,iXtronics Beispiel 1
2015-12-22,11:45,9.06,7.75,4.89,17.85,17.27,14.41,19.25,50.7,8.79,15.87,65.9,9.52,4.06,iXtronics Beispiel 1
2015-12-22,12:00,9.1,7.86,5,17.93,17.47,14.61,19.26,50.8,8.83,16.06,65.5,9.61,4.06,iXtronics Beispiel 1
2015-12-22,12:15,8.96,7.94,5.06,17.85,17.53,14.65,19.2,51.2,8.89,16.11,65.2,9.59,4.06,iXtronics Beispiel 1
2015-12-22,12:30,8.84,7.71,5.03,17.85,17.43,14.75,19.05,52.1,9.01,16.16,65.6,9.72,4.06,iXtronics Beispiel 1
2015-12-22,12:45,8.85,7.72,5.04,17.89,17.53,14.85,19.21,51.7,9.04,16.2,65.8,9.81,4.06,iXtronics Beispiel 1
2015-12-22,13:00,8.92,7.79,5.17,18.01,17.57,14.95,19.36,51.4,9.09,16.29,65.3,9.78,4.06,iXtronics Beispiel 1
2015-12-22,13:15,9.05,7.81,5.17,18.15,17.73,15.09,19.37,51.4,9.1,16.44,65.3,9.92,4.06,iXtronics Beispiel 1
2015-12-22,13:30,9.35,8.07,5.43,18.53,18.11,15.47,19.45,51.4,9.18,16.81,64.3,10.04,4.06,iXtronics Beispiel 1
2015-12-22,13:45,9.27,8.06,5.48,18.49,18.15,15.57,19.43,51.6,9.22,16.88,64.2,10.09,4.06,iXtronics Beispiel 1
2015-12-22,14:00,9.24,8.1,5.66,18.55,18.21,15.77,19.31,52.3,9.31,17.05,63.6,10.11,4.06,iXtronics Beispiel 1
2015-12-22,14:15,9.29,8.13,5.67,18.55,18.21,15.75,19.48,51.6,9.26,17,63.7,10.08,4.06,iXtronics Beispiel 1
2015-12-22,14:30,9.74,8.28,5.82,19.03,18.59,16.13,19.48,51.7,9.29,17.52,62.6,10.31,4.06,iXtronics Beispiel 1
2015-12-22,14:45,9.42,8.11,5.81,18.75,18.41,16.11,19.61,51.4,9.33,17.48,62.7,10.3,4.06,iXtronics Beispiel 1
2015-12-22,15:00,9.32,8.06,5.66,18.69,18.31,15.91,19.41,52.2,9.37,17.35,63,10.25,4.06,iXtronics Beispiel 1
2015-12-22,15:15,9.23,7.99,5.55,18.53,18.15,15.71,19.46,51.8,9.3,17.13,63.5,10.16,4.06,iXtronics Beispiel 1
2015-12-22,15:30,8.96,7.91,5.41,18.25,18.01,15.51,19.42,51.9,9.29,16.92,64.1,10.1,4.06,iXtronics Beispiel 1
2015-12-22,15:45,8.88,7.66,5.22,18.17,17.73,15.29,19.23,52.5,9.29,16.72,64.8,10.07,4.06,iXtronics Beispiel 1
2015-12-22,16:00,8.87,7.51,5.09,18.05,17.57,15.15,19.27,52,9.18,16.56,65.4,10.06,4.06,iXtronics Beispiel 1
2015-12-22,16:15,8.75,7.37,5.09,17.85,17.33,15.05,19.03,52.5,9.1,16.36,65.8,9.96,4.06,iXtronics Beispiel 1
2015-12-22,16:30,8.63,7.57,5.05,17.73,17.41,14.89,18.97,52.7,9.1,16.21,65.9,9.84,4.06,iXtronics Beispiel 1
2015-12-22,16:45,8.57,7.32,4.86,17.67,17.17,14.71,19,52.6,9.1,16.1,66.4,9.85,4.06,iXtronics Beispiel 1
2015-12-22,17:00,8.41,7.53,4.93,17.59,17.25,14.65,19.11,52.5,9.18,16.01,66.2,9.72,4.06,iXtronics Beispiel 1
2015-12-22,17:15,8.42,7.38,4.82,17.53,17.15,14.59,19.07,52.4,9.11,15.97,66.6,9.77,4.06,iXtronics Beispiel 1
2015-12-22,17:30,8.53,7.46,5.04,17.67,17.17,14.75,19.13,52.3,9.14,15.93,66.5,9.71,4.06,iXtronics Beispiel 1
2015-12-22,17:45,8.56,7.44,4.98,17.75,17.21,14.75,19.15,52.4,9.19,15.99,66.5,9.77,4.06,iXtronics Beispiel 1
2015-12-22,18:00,8.54,7.43,5.01,17.67,17.17,14.75,19.09,52.4,9.13,16.01,66.3,9.74,4.06,iXtronics Beispiel 1
2015-12-22,18:15,8.5,7.44,4.98,17.63,17.17,14.71,19.09,52.4,9.13,16,66.3,9.73,4.06,iXtronics Beispiel 1
2015-12-22,18:30,8.44,7.51,5.01,17.57,17.25,14.75,19.09,52.4,9.13,16.01,66.3,9.74,4.06,iXtronics Beispiel 1
2015-12-22,18:45,8.43,7.4,4.96,17.53,17.15,14.71,19.03,52.5,9.1,16,66.4,9.75,4.06,iXtronics Beispiel 1
2015-12-22,19:00,8.46,7.37,5.03,17.59,17.09,14.75,19.03,52.6,9.13,15.99,66.3,9.72,4.06,iXtronics Beispiel 1
2015-12-22,19:15,8.55,7.43,4.99,17.63,17.15,14.71,19.03,52.4,9.08,15.99,66.3,9.72,4.06,iXtronics Beispiel 1
2015-12-22,19:30,8.5,7.48,5.16,17.59,17.21,14.89,19.02,52.5,9.09,16,66.3,9.73,4.06,iXtronics Beispiel 1
2015-12-22,19:45,8.56,7.57,5.21,17.63,17.25,14.89,19.02,52.4,9.07,16,66.1,9.68,4.06,iXtronics Beispiel 1
2015-12-22,20:00,8.58,7.58,5.12,17.59,17.17,14.71,18.96,52.4,9.01,15.99,65.7,9.59,4.06,iXtronics Beispiel 1
2015-12-22,20:15,8.51,7.66,5.06,17.53,17.11,14.51,19,52.3,9.02,15.9,65.5,9.45,4.06,iXtronics Beispiel 1
2015-12-22,20:30,8.48,7.59,4.99,17.51,17.11,14.51,19.01,52.3,9.03,15.85,66,9.52,4.06,iXtronics Beispiel 1
2015-12-22,20:45,8.53,7.61,5.11,17.47,17.05,14.55,18.97,52.1,8.94,15.84,65.7,9.44,4.06,iXtronics Beispiel 1
2015-12-22,21:00,8.51,7.59,5.07,17.47,17.01,14.49,18.94,52.3,8.96,15.82,65.7,9.42,4.06,iXtronics Beispiel 1
2015-12-22,21:15,8.52,7.68,5.18,17.43,16.99,14.49,18.97,52,8.91,15.77,65.4,9.31,4.06,iXtronics Beispiel 1
2015-12-22,21:30,8.61,7.75,5.15,17.51,16.95,14.35,18.93,52.1,8.9,15.75,65,9.2,4.06,iXtronics Beispiel 1
2015-12-22,21:45,8.48,7.6,5.1,17.31,16.91,14.41,18.95,51.8,8.83,15.72,65.6,9.31,4.06,iXtronics Beispiel 1
2015-12-22,22:00,8.51,7.82,5.28,17.31,16.99,14.45,18.89,51.9,8.8,15.72,65,9.17,4.06,iXtronics Beispiel 1
2015-12-22,22:15,8.54,7.82,5.24,17.37,16.99,14.41,18.89,52,8.83,15.74,64.9,9.17,4.06,iXtronics Beispiel 1
2015-12-22,22:30,8.7,7.89,5.39,17.51,16.95,14.45,18.87,52,8.81,15.75,64.4,9.06,4.06,iXtronics Beispiel 1
2015-12-22,22:45,8.61,7.91,5.41,17.37,16.99,14.49,18.87,51.8,8.76,15.75,64.5,9.08,4.06,iXtronics Beispiel 1
2015-12-22,23:00,8.65,7.98,5.52,17.37,16.95,14.49,18.89,51.6,8.72,15.75,64,8.97,4.06,iXtronics Beispiel 1
2015-12-22,23:15,8.73,7.91,5.35,17.41,17.01,14.45,18.88,51.5,8.68,15.77,64.5,9.1,4.06,iXtronics Beispiel 1
2015-12-22,23:30,8.73,7.96,5.5,17.37,16.95,14.49,18.87,51.4,8.64,15.8,63.9,8.99,4.06,iXtronics Beispiel 1
2015-12-22,23:45,8.78,8.02,5.48,17.47,16.99,14.45,18.92,51.4,8.69,15.8,63.8,8.97,4.06,iXtronics Beispiel 1
2015-12-23,00:00,8.71,8.3,5.8,17.41,16.99,14.49,18.93,51.4,8.7,15.8,62.6,8.69,4.06,iXtronics Beispiel 1
2015-12-23,00:15,8.7,8.26,5.72,17.33,16.95,14.41,18.95,51.1,8.63,15.75,62.8,8.69,4.06,iXtronics Beispiel 1
2015-12-23,00:30,8.81,8.36,5.7,17.37,16.95,14.29,18.91,51,8.56,15.72,62.5,8.59,4.06,iXtronics Beispiel 1
2015-12-23,00:45,8.88,8.13,5.63,17.37,16.89,14.39,18.86,50.9,8.49,15.7,63.3,8.76,4.06,iXtronics Beispiel 1
2015-12-23,01:00,8.71,8.02,5.48,17.25,16.89,14.35,18.88,51,8.54,15.7,63.8,8.87,4.06,iXtronics Beispiel 1
2015-12-23,01:15,8.71,7.99,5.49,17.27,16.91,14.41,18.91,51,8.56,15.7,64,8.92,4.06,iXtronics Beispiel 1
2015-12-23,01:30,8.95,8.27,5.71,17.41,16.91,14.35,18.86,50.8,8.46,15.72,62.7,8.64,4.06,iXtronics Beispiel 1
2015-12-23,01:45,8.86,7.96,5.46,17.41,16.89,14.39,18.89,51,8.55,15.71,64,8.93,4.06,iXtronics Beispiel 1
2015-12-23,02:00,8.99,8.38,5.88,17.51,16.91,14.41,18.92,50.8,8.52,15.71,62.3,8.53,4.06,iXtronics Beispiel 1
2015-12-23,02:15,8.95,8.07,5.59,17.41,16.83,14.35,18.86,50.8,8.46,15.7,63.3,8.76,4.06,iXtronics Beispiel 1
2015-12-23,02:30,8.78,8.22,5.62,17.27,16.89,14.29,18.89,50.8,8.49,15.66,63.1,8.67,4.06,iXtronics Beispiel 1
2015-12-23,02:45,8.85,8.14,5.62,17.27,16.83,14.31,18.88,50.6,8.42,15.63,63.3,8.69,4.06,iXtronics Beispiel 1
2015-12-23,03:00,8.87,8.45,5.97,17.27,16.83,14.35,18.86,50.6,8.4,15.62,62,8.38,4.06,iXtronics Beispiel 1
2015-12-23,03:15,8.95,8.28,5.66,17.37,16.83,14.21,18.85,50.7,8.42,15.6,62.8,8.55,4.06,iXtronics Beispiel 1
2015-12-23,03:30,8.95,8.33,5.69,17.31,16.85,14.21,18.81,50.6,8.36,15.57,62.8,8.52,4.06,iXtronics Beispiel 1
2015-12-23,03:45,8.84,8.34,5.62,17.17,16.73,14.01,18.78,50.6,8.33,15.53,62.4,8.39,4.06,iXtronics Beispiel 1
2015-12-23,04:00,8.78,7.96,5.22,17.15,16.73,13.99,18.79,50.7,8.37,15.47,64.3,8.77,4.06,iXtronics Beispiel 1
2015-12-23,04:15,8.67,8.25,5.37,17.01,16.59,13.71,18.79,50.6,8.34,15.36,62.9,8.34,4.06,iXtronics Beispiel 1
2015-12-23,04:30,8.66,7.97,5.23,16.95,16.43,13.69,18.71,50.7,8.29,15.21,64,8.46,4.06,iXtronics Beispiel 1
2015-12-23,04:45,8.78,7.99,5.07,17.05,16.47,13.55,18.72,50.6,8.27,15.14,64.4,8.48,4.06,iXtronics Beispiel 1
2015-12-23,05:00,8.61,7.92,5.16,16.89,16.37,13.61,18.7,50.7,8.28,15.08,64.5,8.45,4.06,iXtronics Beispiel 1
2015-12-23,05:15,8.67,7.89,5.11,16.95,16.47,13.69,18.7,50.7,8.28,15.1,65,8.58,4.06,iXtronics Beispiel 1
2015-12-23,05:30,8.69,8.05,5.33,16.99,16.47,13.75,18.72,50.7,8.3,15.15,64.1,8.42,4.06,iXtronics Beispiel 1
2015-12-23,05:45,8.57,7.91,4.99,16.85,16.47,13.55,18.69,50.7,8.28,15.15,64.7,8.56,4.06,iXtronics Beispiel 1
2015-12-23,06:00,8.68,7.87,5.05,16.95,16.43,13.61,18.72,50.6,8.27,15.13,64.8,8.56,4.06,iXtronics Beispiel 1
2015-12-23,06:15,8.6,7.83,5.03,16.85,16.39,13.59,18.66,50.7,8.25,15.1,64.9,8.56,4.06,iXtronics Beispiel 1
2015-12-23,06:30,8.74,7.62,4.6,16.99,16.33,13.31,18.69,50.6,8.25,15.09,65.6,8.71,4.06,iXtronics Beispiel 1
2015-12-23,06:45,8.57,7.71,4.65,16.85,16.33,13.27,18.7,50.7,8.28,14.97,65.7,8.62,4.06,iXtronics Beispiel 1
2015-12-23,07:00,8.55,7.71,4.79,16.85,16.33,13.41,18.72,50.7,8.3,14.97,65.7,8.62,4.06,iXtronics Beispiel 1
2015-12-23,07:15,8.48,7.73,4.25,16.85,16.49,13.01,18.82,50.6,8.37,14.98,66.3,8.76,4.06,iXtronics Beispiel 1
2015-12-23,07:30,8.5,7.82,4.4,16.85,16.47,13.05,18.74,50.8,8.35,14.84,66.4,8.65,4.06,iXtronics Beispiel 1
2015-12-23,07:45,8.57,7.71,4.39,16.91,16.43,13.11,18.82,50.5,8.34,14.82,66.8,8.72,4.06,iXtronics Beispiel 1
2015-12-23,08:00,8.82,7.78,4.5,16.91,16.49,13.21,18.61,50.3,8.09,14.86,66.6,8.71,4.06,iXtronics Beispiel 1
2015-12-23,08:15,8.77,7.62,4.12,16.89,16.37,12.87,18.24,51.6,8.12,14.83,66.9,8.75,4.06,iXtronics Beispiel 1
2015-12-23,08:30,8.33,7.15,3.41,16.69,16.17,12.43,18.56,51.4,8.36,14.68,68.8,9.02,4.06,iXtronics Beispiel 1
2015-12-23,08:45,8.25,7.1,3.32,16.73,16.21,12.43,18.82,51,8.48,14.68,69.2,9.11,4.06,iXtronics Beispiel 1
2015-12-23,09:00,8.19,6.98,3.04,16.73,16.13,12.19,18.85,51.1,8.54,14.57,69.9,9.15,4.06,iXtronics Beispiel 1
2015-12-23,09:15,8.03,6.95,2.91,16.65,16.07,12.03,18.88,51.3,8.62,14.38,70.6,9.12,4.06,iXtronics Beispiel 1
2015-12-23,09:30,7.92,6.84,2.82,16.65,16.01,11.99,19,51.3,8.73,14.33,71.1,9.17,4.06,iXtronics Beispiel 1
2015-12-23,09:45,7.96,6.93,3.05,16.69,16.21,12.33,19,51.3,8.73,14.49,70.9,9.28,4.06,iXtronics Beispiel 1
2015-12-23,10:00,8.17,7.05,3.37,16.91,16.39,12.71,19.1,51,8.74,14.68,70.3,9.34,4.06,iXtronics Beispiel 1
2015-12-23,10:15,8.4,7.48,3.6,17.17,16.75,12.87,19.29,50.5,8.77,14.85,69.2,9.27,4.06,iXtronics Beispiel 1
2015-12-23,10:30,8.74,7.53,3.97,17.47,16.91,13.35,19.18,50.7,8.73,15.21,68.1,9.38,4.06,iXtronics Beispiel 1
2015-12-23,10:45,9.29,7.87,4.05,17.95,17.33,13.51,19.27,50.2,8.66,15.62,66.7,9.46,4.06,iXtronics Beispiel 1
2015-12-23,11:00,10.31,8.52,4.54,19.01,18.43,14.45,19.41,49.9,8.7,16.57,64.7,9.91,4.06,iXtronics Beispiel 1
2015-12-23,11:15,13.01,10.45,6.07,21.77,20.77,16.39,19.96,48.4,8.76,18.52,58.8,10.32,4.06,iXtronics Beispiel 1
2015-12-23,11:30,12.37,11.28,6.18,21.11,21.17,16.07,20.14,47.8,8.74,19.61,53.4,9.89,4.06,iXtronics Beispiel 1
2015-12-23,11:45,10.96,9.98,5.62,19.67,19.51,15.15,19.74,48.9,8.71,18.69,55.2,9.53,4.06,iXtronics Beispiel 1
2015-12-23,12:00,10.21,9.52,5.54,18.91,18.49,14.51,19.38,50,8.7,17.66,56.7,8.97,4.06,iXtronics Beispiel 1
2015-12-23,12:15,11.63,10.27,5.89,20.37,19.73,15.35,19.51,49.7,8.74,18.35,56.1,9.46,4.06,iXtronics Beispiel 1
2015-12-23,12:30,10.45,9.9,5.84,19.13,18.87,14.81,19.39,49.9,8.68,17.74,56.4,8.97,4.06,iXtronics Beispiel 1
2015-12-23,12:45,10.9,9.89,6.05,19.47,18.95,15.11,19.4,49.5,8.57,17.64,57.1,9.06,4.06,iXtronics Beispiel 1
2015-12-23,13:00,10.44,9.95,5.95,19.13,18.85,14.85,19.33,50.1,8.69,17.7,56.3,8.9,4.06,iXtronics Beispiel 1
2015-12-23,13:15,10.73,9.56,5.68,19.57,19.17,15.29,19.56,49.9,8.84,17.69,59.1,9.61,4.06,iXtronics Beispiel 1
2015-12-23,13:30,13.54,12.33,7.41,22.17,21.77,16.85,20.06,47.7,8.63,19.96,50.7,9.44,4.06,iXtronics Beispiel 1
2015-12-23,13:45,16.39,14.21,10.13,25.07,24.53,20.45,20.45,46.7,8.68,21.77,48.1,10.32,4.06,iXtronics Beispiel 1
2015-12-23,14:00,14.12,12.72,7.76,22.77,22.05,17.09,20.49,46.5,8.65,21.74,45.1,9.33,4.06,iXtronics Beispiel 1
2015-12-23,14:15,11.9,10.64,6.84,20.31,19.77,15.97,19.92,47.4,8.41,19.71,50.4,9.13,4.06,iXtronics Beispiel 1
2015-12-23,14:30,11.39,10.45,6.79,19.55,18.95,15.29,19.47,47.9,8.16,18.47,52.2,8.5,4.06,iXtronics Beispiel 1
2015-12-23,14:45,10.63,9.46,6.04,18.69,18.27,14.85,19.27,48.2,8.06,17.49,56.7,8.81,4.06,iXtronics Beispiel 1
2015-12-23,15:00,10.23,9.26,5.56,18.27,17.79,14.09,19.21,48.3,8.04,16.8,58.1,8.53,4.06,iXtronics Beispiel 1
2015-12-23,15:15,9.77,8.84,5.32,17.79,17.17,13.65,18.96,49,8.02,16.13,59.8,8.33,4.06,iXtronics Beispiel 1
2015-12-23,15:30,9.65,9,5.46,17.53,16.89,13.35,18.94,48.6,7.88,15.72,59.6,7.89,4.06,iXtronics Beispiel 1
2015-12-23,15:45,9.39,8.03,4.69,17.17,16.59,13.25,18.5,49.6,7.78,15.37,63.8,8.56,4.06,iXtronics Beispiel 1
2015-12-23,16:00,9.43,8.38,4.86,17.09,16.39,12.87,18.89,48,7.66,15.08,62.6,8.01,4.06,iXtronics Beispiel 1
2015-12-23,16:15,9.12,7.84,4.34,16.75,16.17,12.67,18.86,48,7.63,14.72,65.5,8.33,4.06,iXtronics Beispiel 1
2015-12-23,16:30,8.9,7.65,4.11,16.53,15.97,12.43,18.83,48.1,7.63,14.68,65.6,8.32,4.06,iXtronics Beispiel 1
2015-12-23,16:45,8.87,7.63,3.99,16.49,15.93,12.29,18.78,48.2,7.62,14.5,66.3,8.3,4.06,iXtronics Beispiel 1
2015-12-23,17:00,8.68,7.57,4.03,16.37,15.81,12.27,18.73,48.6,7.69,14.34,66.7,8.24,4.06,iXtronics Beispiel 1
2015-12-23,17:15,8.59,7.69,4.27,16.33,15.85,12.43,18.72,48.8,7.74,14.35,66.3,8.16,4.06,iXtronics Beispiel 1
2015-12-23,17:30,8.62,7.65,4.11,16.37,15.87,12.33,18.73,48.8,7.75,14.37,66.5,8.22,4.06,iXtronics Beispiel 1
2015-12-23,17:45,8.72,7.85,4.37,16.49,15.87,12.39,18.69,49,7.77,14.34,65.7,8.02,4.06,iXtronics Beispiel 1
2015-12-23,18:00,8.7,7.86,4.28,16.43,15.91,12.33,18.64,49,7.73,14.33,65.9,8.05,4.06,iXtronics Beispiel 1
2015-12-23,18:15,8.56,7.66,4,16.27,15.75,12.09,18.69,48.8,7.71,14.23,66.5,8.09,4.06,iXtronics Beispiel 1
2015-12-23,18:30,8.55,7.83,4.23,16.23,15.65,12.05,18.62,48.9,7.68,14.13,65.7,7.82,4.06,iXtronics Beispiel 1
2015-12-23,18:45,8.57,7.97,4.21,16.23,15.65,11.89,18.63,48.8,7.66,14.03,65.5,7.68,4.06,iXtronics Beispiel 1
2015-12-23,19:00,8.56,7.97,4.27,16.17,15.55,11.85,18.58,48.8,7.61,13.93,65.5,7.58,4.06,iXtronics Beispiel 1
2015-12-23,19:15,8.59,7.97,4.37,16.17,15.55,11.95,18.64,48.5,7.58,13.95,65.4,7.58,4.06,iXtronics Beispiel 1
2015-12-23,19:30,8.52,7.86,4.1,16.07,15.51,11.75,18.61,48.5,7.55,13.93,65.8,7.65,4.06,iXtronics Beispiel 1
2015-12-23,19:45,8.57,7.84,3.94,16.07,15.47,11.57,18.59,48.4,7.5,13.82,66.2,7.63,4.06,iXtronics Beispiel 1
2015-12-23,20:00,8.55,7.75,3.79,16.03,15.41,11.45,18.57,48.4,7.48,13.69,66.9,7.66,4.06,iXtronics Beispiel 1
2015-12-23,20:15,8.47,7.79,3.79,15.93,15.31,11.31,18.54,48.4,7.46,13.58,66.7,7.52,4.06,iXtronics Beispiel 1
2015-12-23,20:30,8.36,7.62,3.74,15.77,15.19,11.31,18.55,48.2,7.41,13.52,67.2,7.57,4.06,iXtronics Beispiel 1
2015-12-23,20:45,8.45,7.63,3.59,15.85,15.25,11.21,18.51,48.3,7.4,13.48,67.6,7.62,4.06,iXtronics Beispiel 1
2015-12-23,21:00,8.49,7.69,3.61,15.85,15.11,11.03,18.5,48.2,7.36,13.41,67,7.42,4.06,iXtronics Beispiel 1
2015-12-23,21:15,8.47,7.56,3.46,15.81,15.09,10.99,18.48,48.2,7.34,13.34,67.8,7.53,4.06,iXtronics Beispiel 1
2015-12-23,21:30,8.24,7.77,3.71,15.57,14.99,10.93,18.47,48.2,7.33,13.25,66.8,7.22,4.06,iXtronics Beispiel 1
2015-12-23,21:45,8.32,7.72,3.66,15.61,14.91,10.85,18.46,48.1,7.29,13.15,67.1,7.19,4.06,iXtronics Beispiel 1
2015-12-23,22:00,8.29,7.62,3.42,15.57,14.99,10.79,18.41,48.2,7.28,13.09,68.2,7.37,4.06,iXtronics Beispiel 1
2015-12-23,22:15,8.2,7.61,3.55,15.47,14.95,10.89,18.44,48.1,7.27,13.14,67.8,7.34,4.06,iXtronics Beispiel 1
2015-12-23,22:30,8.41,7.8,3.76,15.67,14.99,10.95,18.46,48,7.26,13.12,67.2,7.19,4.06,iXtronics Beispiel 1
2015-12-23,22:45,8.34,7.78,3.72,15.57,14.89,10.83,18.42,48,7.23,13.09,67,7.11,4.06,iXtronics Beispiel 1